Location: Gull Harbor
(47.1000°N, 122.9000°W)
Time: 10:21:08
(UTC-08:00)

Tiangong 2 - Visible Passes

Search period start: 24 November 2017 00:00
Search period end: 04 December 2017 00:00
Orbit: 386 x 392 km, 42.8° (Epoch: 24 November)

Date Brightness Start Highest point End Pass type
(mag) Time Alt. Az. Time Alt. Az. Time Alt. Az.
26 Nov 4.2 06:26:54 10° S 06:28:30 13° SSE 06:30:04 10° ESE visible
28 Nov 3.6 06:06:12 10° SSW 06:08:35 19° SSE 06:10:58 10° ESE visible
29 Nov 3.9 05:10:07 13° SSE 05:10:33 14° SSE 05:12:14 10° ESE visible
29 Nov 2.7 06:43:54 10° SW 06:46:49 32° S 06:49:43 10° ESE visible
30 Nov 2.9 05:47:15 19° SSW 05:48:41 26° SSE 05:51:25 10° ESE visible
01 Dec 4.0 04:51:56 16° SE 04:51:56 16° SE 04:52:59 10° ESE visible
01 Dec 2.3 06:24:15 12° WSW 06:26:57 37° S 06:29:56 10° ESE visible
02 Dec 2.4 05:28:49 33° SSE 05:28:49 33° SSE 05:31:41 10° ESE visible
03 Dec 4.7 04:33:20 10° ESE 04:33:20 10° ESE 04:33:21 10° ESE visible
03 Dec 2.2 06:05:38 23° SW 06:07:03 37° S 06:10:02 10° ESE visible
